Weather History for Kansas City International, MO

Change the Weather History Date:

Friday, February 28, 2014

  Actual Average Record
Temperature  
Mean Temperature 36 °F 38 °F  
Max Temperature 53 °F 48 °F 78 °F (1932)
Min Temperature 19 °F 28 °F -4 °F (1891)
Degree Days  
Heating Degree Days 29 27  
Month to date heating degree days 1122 882  
Since 1 July heating degree days 4566 4045  
Cooling Degree Days 0 0  
Month to date cooling degree days 0 0  
Year to date cooling degree days 0 0  
Moisture  
Dew Point 16 °F    
Average Humidity 50    
Maximum Humidity 69    
Minimum Humidity 31    
Precipitation  
Precipitation 0.00 in 0.06 in 1.38 in (1987)
Month to date precipitation 1.36 1.46  
Year to date precipitation 1.75 2.53  
Snow  
Snow 0.00 in 0.10 in 5.80 in (1919)
Month to date snowfall 11.3 5.4  
Since 1 July snowfall 22.6 16.2  
Snow Depth 0.00 in    
Sea Level Pressure  
Sea Level Pressure 29.90 in    
Wind  
Wind Speed 13 mph (SSE)    
Max Wind Speed 21 mph    
Max Gust Speed 27 mph    
Visibility 10 miles    
Events      
T = Trace of Precipitation, MM = Missing Value Source: NWS Daily Summary

Daily Weather History Graph

Daily Weather History Graph

Search for Another Location

Airport:

Trip Planner

Search our weather history database for the weather conditions in past years. The results will help you decide how hot, cold, wet, or windy it might be!

Date:

Astronomy

Feb. 28, 2014 Rise Set
Actual Time 6:53 AM CST 6:10 PM CST
Civil Twilight 6:26 AM CST 6:37 PM CST
Nautical Twilight 5:55 AM CST 7:08 PM CST
Astronomical Twilight 5:24 AM CST 7:39 PM CST
Moon 6:08 AM CST (2/28) 5:48 PM CST (2/28)
Length of Visible Light 12h 11m
Length of Day
11h 17m
Waning Crescent, 1% of the Moon is Illuminated
Feb 28
Waning Crescent
Mar 1
New
Mar 8
First Quarter
Mar 16
Full
Mar 23
Last Quarter

Hourly Weather History & Observations

Time (CST) Temp. Windchill Dew Point Humidity Pressure Visibility Wind Dir Wind Speed Gust Speed Precip Events Conditions
12:53 AM 21.9 °F 8.2 °F 1.0 °F 40% 29.94 in 10.0 mi East 16.1 mph - N/A   Partly Cloudy
1:53 AM 21.0 °F 6.6 °F 1.0 °F 42% 29.93 in 10.0 mi ESE 17.3 mph - N/A   Scattered Clouds
2:53 AM 21.0 °F 8.1 °F 1.9 °F 44% 29.90 in 10.0 mi ESE 13.8 mph - N/A   Partly Cloudy
3:53 AM 19.9 °F 5.7 °F 1.9 °F 46% 29.88 in 10.0 mi ESE 16.1 mph - N/A   Scattered Clouds
4:53 AM 19.9 °F 5.7 °F 1.9 °F 46% 29.88 in 10.0 mi ESE 16.1 mph - N/A   Scattered Clouds
5:53 AM 19.0 °F 6.1 °F 3.0 °F 50% 29.87 in 10.0 mi ESE 12.7 mph - N/A   Scattered Clouds
6:53 AM 19.9 °F 6.7 °F 5.0 °F 52% 29.86 in 10.0 mi ESE 13.8 mph - N/A   Scattered Clouds
7:53 AM 21.9 °F 9.2 °F 7.0 °F 53% 29.86 in 10.0 mi ESE 13.8 mph - N/A   Mostly Cloudy
8:53 AM 28.0 °F 15.7 °F 10.9 °F 49% 29.86 in 10.0 mi SE 17.3 mph - N/A   Mostly Cloudy
9:53 AM 34.0 °F 23.0 °F 12.9 °F 42% 29.88 in 10.0 mi SSE 18.4 mph - N/A   Mostly Cloudy
10:53 AM 41.0 °F 32.2 °F 16.0 °F 36% 29.87 in 10.0 mi SSE 18.4 mph - N/A   Mostly Cloudy
11:53 AM 46.0 °F 39.6 °F 18.0 °F 33% 29.86 in 10.0 mi South 15.0 mph - N/A   Mostly Cloudy
12:53 PM 50.0 °F - 21.9 °F 33% 29.83 in 10.0 mi South 17.3 mph - N/A   Mostly Cloudy
1:53 PM 52.0 °F - 23.0 °F 32% 29.81 in 10.0 mi South 11.5 mph 24.2 mph N/A   Mostly Cloudy
2:53 PM 50.0 °F - 24.1 °F 36% 29.84 in 10.0 mi SSW 10.4 mph - N/A   Overcast
3:53 PM 48.0 °F - 25.0 °F 41% 29.86 in 10.0 mi SSW 12.7 mph - N/A   Overcast
4:53 PM 46.9 °F - 25.0 °F 42% 29.86 in 9.0 mi South 11.5 mph - N/A   Overcast
5:51 PM 44.6 °F 39.7 °F 24.8 °F 46% 29.85 in 10.0 mi South 9.2 mph - N/A   Overcast
5:53 PM 44.1 °F 39.5 °F 24.1 °F 45% 29.88 in 10.0 mi South 8.1 mph - N/A   Overcast
6:53 PM 43.0 °F 39.5 °F 25.0 °F 49% 29.91 in 10.0 mi SSW 5.8 mph - N/A   Overcast
7:53 PM 41.0 °F 38.0 °F 25.0 °F 53% 29.94 in 10.0 mi SSW 4.6 mph - N/A   Overcast
8:53 PM 41.0 °F 38.0 °F 25.0 °F 53% 29.96 in 10.0 mi SW 4.6 mph - N/A   Overcast
9:53 PM 37.0 °F 28.1 °F 23.0 °F 57% 29.99 in 10.0 mi NNW 15.0 mph 20.7 mph N/A   Overcast
10:53 PM 33.1 °F 24.9 °F 24.1 °F 70% 30.03 in 10.0 mi North 10.4 mph - N/A   Overcast
11:53 PM 32.0 °F 22.5 °F 25.0 °F 75% 30.05 in 10.0 mi North 12.7 mph - N/A   Overcast